GW5381 Weather Reports


time (UTC)temp
C
wind
direction
speed
KPH
gust
KPH
rain 1hr
cm
rain 24hr
cm
rain mn
cm
humidity
%
barometer
mb
20260505072904 17 130 1.6 4.8 0.00 0.00 0.00 59 1007.6
20260505072359 17 211 3.2 4.8 0.00 0.00 0.00 59 1007.5
20260505071856 17 42 4.8 6.4 0.00 0.00 0.00 59 1007.7
20260505071352 17 111 3.2 4.8 0.00 0.00 0.00 59 1007.6
20260505070850 18 105 1.6 4.8 0.00 0.00 0.00 59 1007.6
20260505070346 18 115 1.6 6.4 0.00 0.00 0.00 59 1007.6
20260505065842 18 271 8.0 11.3 0.00 0.00 0.00 59 1007.6
20260505065339 18 129 0.0 4.8 0.00 0.00 0.00 59 1007.8
20260505064836 18 125 0.0 4.8 0.00 0.00 0.00 59 1007.6
20260505064333 18 167 0.0 6.4 0.00 0.00 0.00 59 1007.8
20260505063831 18 285 3.2 9.7 0.00 0.00 0.00 59 1007.9
20260505063327 17 162 1.6 3.2 0.00 0.00 0.00 60 1007.8
20260505062823 17 172 1.6 4.8 0.00 0.00 0.00 60 1007.8
20260505062321 17 277 4.8 9.7 0.00 0.00 0.00 60 1007.8
20260505061818 17 155 3.2 4.8 0.00 0.00 0.00 60 1007.6
20260505061316 17 233 3.2 4.8 0.00 0.00 0.00 60 1007.8
20260505060813 17 152 1.6 6.4 0.00 0.00 0.00 60 1007.5
20260505060310 18 150 3.2 6.4 0.00 0.00 0.00 60 1007.7
20260505055805 18 119 0.0 6.4 0.00 0.00 0.00 60 1007.4
20260505055303 18 290 4.8 9.7 0.00 0.00 0.00 59 1007.4
20260505054759 18 285 3.2 9.7 0.00 0.00 0.00 59 1007.1
20260505054257 18 225 1.6 6.4 0.00 0.00 0.00 59 1007.3
20260505053755 18 192 1.6 12.9 0.00 0.00 0.00 58 1007.3
20260505053251 18 170 1.6 11.3 0.00 0.00 0.00 58 1007.2
20260505052748 18 265 3.2 16.1 0.00 0.00 0.00 59 1007.2
20260505052245 18 284 4.8 6.4 0.00 0.00 0.00 59 1007.5
20260505051742 18 84 3.2 14.5 0.00 0.00 0.00 59 1007.5
20260505051240 18 195 1.6 6.4 0.00 0.00 0.00 58 1007.5
20260505050738 18 295 3.2 4.8 0.00 0.00 0.00 58 1007.6
20260505050236 18 106 1.6 6.4 0.00 0.00 0.00 58 1007.6
20260505041706 19 256 3.2 4.8 0.00 0.00 0.00 57 1007.9
20260505041203 19 106 1.6 4.8 0.00 0.00 0.00 58 1007.9
20260505040700 19 115 3.2 4.8 0.00 0.00 0.00 58 1008.0
20260505040157 19 102 1.6 4.8 0.00 0.00 0.00 59 1008.0
20260505035654 19 149 1.6 3.2 0.00 0.00 0.00 59 1007.8
20260505035150 19 154 1.6 6.4 0.00 0.00 0.00 58 1007.6
20260505034647 19 257 4.8 11.3 0.00 0.00 0.00 58 1007.8
20260505034144 19 161 1.6 11.3 0.00 0.00 0.00 59 1008.0
20260505033640 19 158 1.6 3.2 0.00 0.00 0.00 58 1007.8
20260505033139 19 210 3.2 6.4 0.00 0.00 0.00 58 1007.9
20260505032636 19 132 1.6 4.8 0.00 0.00 0.00 58 1007.9
20260505032132 19 103 0.0 4.8 0.00 0.00 0.00 58 1007.8
20260505031630 19 184 1.6 3.2 0.00 0.00 0.00 58 1007.8
20260505031125 20 102 0.0 9.7 0.00 0.00 0.00 58 1007.9
20260505030623 20 112 1.6 9.7 0.00 0.00 0.00 57 1007.5
20260505030119 20 155 3.2 4.8 0.00 0.00 0.00 57 1007.4
20260505025614 20 311 6.4 9.7 0.00 0.00 0.00 57 1007.6
20260505025114 20 81 3.2 6.4 0.00 0.00 0.00 57 1007.6
20260505024611 20 242 3.2 9.7 0.00 0.00 0.00 56 1007.6
20260505024108 20 151 3.2 4.8 0.00 0.00 0.00 56 1007.3
20260505023605 20 188 1.6 4.8 0.00 0.00 0.00 56 1007.2
20260505023103 20 133 4.8 6.4 0.00 0.00 0.00 55 1007.4
20260505022600 20 299 3.2 11.3 0.00 0.00 0.00 55 1007.4
20260505022056 20 155 3.2 11.3 0.00 0.00 0.00 54 1007.3
20260505021553 20 220 3.2 9.7 0.00 0.00 0.00 54 1007.1
20260505021050 20 199 1.6 6.4 0.00 0.00 0.00 54 1007.2
20260505020550 20 229 4.8 4.8 0.00 0.00 0.00 54 1007.0
20260505020047 21 277 6.4 6.4 0.00 0.00 0.00 54 1006.7
20260505015544 21 260 3.2 9.7 0.00 0.00 0.00 53 1006.9
20260505015041 21 291 8.0 9.7 0.00 0.00 0.00 53 1006.9
20260505014538 21 295 3.2 9.7 0.00 0.00 0.00 54 1006.9
20260505014035 21 308 3.2 6.4 0.00 0.00 0.00 54 1006.8
20260505013532 21 160 1.6 11.3 0.00 0.00 0.00 54 1006.6
20260505013029 21 159 1.6 4.8 0.00 0.00 0.00 54 1006.8
20260505012527 21 142 1.6 4.8 0.00 0.00 0.00 54 1006.6
20260505012024 21 138 1.6 4.8 0.00 0.00 0.00 54 1006.7
20260505011519 21 322 4.8 6.4 0.00 0.00 0.00 53 1006.6
20260505011017 21 118 3.2 4.8 0.00 0.00 0.00 53 1006.7
20260505010512 21 179 1.6 3.2 0.00 0.00 0.00 53 1006.6
20260505010009 21 200 0.0 9.7 0.00 0.00 0.00 52 1006.6
20260505005505 21 170 0.0 4.8 0.00 0.00 0.00 52 1006.6
20260505005004 21 224 3.2 3.2 0.00 0.00 0.00 52 1006.6
20260505004500 21 165 1.6 6.4 0.00 0.00 0.00 51 1006.6
20260505003956 21 110 1.6 11.3 0.00 0.00 0.00 51 1006.4
20260505003454 21 104 3.2 6.4 0.00 0.00 0.00 51 1006.6
20260505002950 21 271 3.2 4.8 0.00 0.00 0.00 51 1006.7
20260505002446 22 182 0.0 3.2 0.00 0.00 0.00 51 1006.9
20260505001944 22 178 3.2 4.8 0.00 0.00 0.00 50 1006.6
20260505001442 22 111 0.0 1.6 0.00 0.00 0.00 50 1006.7
20260505000939 22 279 3.2 6.4 0.00 0.00 0.00 48 1006.6
20260505000437 22 159 0.0 4.8 0.00 0.00 0.00 48 1006.8
20260504235933 22 143 1.6 4.8 0.00 0.00 0.00 48 1006.7
20260504235431 22 192 1.6 1.6 0.00 0.00 0.00 47 1006.7
20260504234926 23 133 3.2 6.4 0.00 0.00 0.00 46 1007.1
20260504234424 23 112 3.2 9.7 0.00 0.00 0.00 47 1007.0
20260504233921 23 107 1.6 4.8 0.00 0.00 0.00 45 1007.2
20260504233416 23 278 3.2 6.4 0.00 0.00 0.00 45 1007.4
20260504232913 23 130 1.6 3.2 0.00 0.00 0.00 45 1007.2
20260504232410 23 112 1.6 3.2 0.00 0.00 0.00 44 1007.3
20260504231907 23 120 0.0 1.6 0.00 0.00 0.00 44 1007.5
20260504231404 23 239 1.6 6.4 0.00 0.00 0.00 43 1007.4
20260504230900 24 127 1.6 3.2 0.00 0.00 0.00 43 1007.4
20260504230357 24 111 1.6 9.7 0.00 0.00 0.00 43 1007.4
20260504225856 24 303 1.6 6.4 0.00 0.00 0.00 42 1007.3
20260504225352 24 131 1.6 14.5 0.00 0.00 0.00 43 1007.4
20260504224850 25 290 3.2 14.5 0.00 0.00 0.00 42 1007.3
20260504224346 25 109 1.6 6.4 0.00 0.00 0.00 43 1007.5
20260504223843 24 146 0.0 1.6 0.00 0.00 0.00 43 1007.5
20260504223338 24 129 1.6 6.4 0.00 0.00 0.00 43 1007.6
20260504222835 24 138 8.0 12.9 0.00 0.00 0.00 41 1007.7
20260504222332 24 64 3.2 9.7 0.00 0.00 0.00 43 1007.5
20260504221831 25 131 9.7 14.5 0.00 0.00 0.00 40 1007.6
20260504221327 25 266 8.0 11.3 0.00 0.00 0.00 40 1007.5
20260504220824 25 115 0.0 4.8 0.00 0.00 0.00 44 1007.3
20260504220321 25 137 1.6 6.4 0.00 0.00 0.00 43 1007.6
20260504215819 25 256 0.0 4.8 0.00 0.00 0.00 44 1007.5
20260504215315 25 159 3.2 6.4 0.00 0.00 0.00 43 1007.6
20260504214811 25 282 3.2 9.7 0.00 0.00 0.00 44 1007.7
20260504214308 25 166 1.6 4.8 0.00 0.00 0.00 47 1007.6
20260504213804 25 139 1.6 3.2 0.00 0.00 0.00 47 1007.7
20260504213300 25 173 3.2 6.4 0.00 0.00 0.00 49 1007.7
20260504212758 25 213 1.6 4.8 0.00 0.00 0.00 48 1007.9
20260504212254 24 126 0.0 1.6 0.00 0.00 0.00 49 1008.1
20260504211752 23 118 0.0 1.6 0.00 0.00 0.00 52 1007.9
20260504211247 23 235 1.6 6.4 0.00 0.00 0.00 46 1008.1
20260504210745 24 230 4.8 4.8 0.00 0.00 0.00 45 1008.1
20260504210242 25 136 3.2 3.2 0.00 0.00 0.00 44 1008.1
20260504205739 27 119 1.6 4.8 0.00 0.00 0.00 41 1008.1
20260504205237 26 116 0.0 4.8 0.00 0.00 0.00 43 1008.3
20260504204735 26 152 1.6 4.8 0.00 0.00 0.00 42 1008.2
20260504204233 26 266 1.6 1.6 0.00 0.00 0.00 44 1008.3
20260504203732 26 127 1.6 6.4 0.00 0.00 0.00 44 1008.3
20260504203229 25 106 3.2 4.8 0.00 0.00 0.00 43 1008.5
20260504202729 25 65 3.2 9.7 0.00 0.00 0.00 44 1008.6
20260504202226 24 216 1.6 3.2 0.00 0.00 0.00 50 1008.5
20260504201723 24 122 0.0 6.4 0.00 0.00 0.00 50 1008.6
20260504201220 24 101 1.6 6.4 0.00 0.00 0.00 47 1008.9
20260504200718 24 148 0.0 4.8 0.00 0.00 0.00 49 1008.8
20260504200214 24 124 3.2 3.2 0.00 0.00 0.00 47 1008.9
20260504195711 25 101 3.2 4.8 0.00 0.00 0.00 47 1009.0
20260504195207 25 125 0.0 1.6 0.00 0.00 0.00 48 1009.0
20260504194704 25 244 4.8 6.4 0.00 0.00 0.00 48 1009.1
20260504194200 24 112 1.6 4.8 0.00 0.00 0.00 46 1009.3
20260504193656 23 12 1.6 6.4 0.00 0.00 0.00 48 1009.3
20260504193154 24 115 1.6 3.2 0.00 0.00 0.00 47 1009.5
20260504192652 25 250 6.4 6.4 0.00 0.00 0.00 47 1009.5
20260504192150 24 238 1.6 6.4 0.00 0.00 0.00 49 1009.5
20260504191648 24 154 1.6 4.8 0.00 0.00 0.00 49 1009.5
20260504191144 25 159 3.2 9.7 0.00 0.00 0.00 47 1010.0
20260504190640 24 180 1.6 6.4 0.00 0.00 0.00 51 1009.9
20260504190137 23 148 4.8 6.4 0.00 0.00 0.00 51 1010.0
20260504185633 22 121 1.6 4.8 0.00 0.00 0.00 56 1010.0
20260504185130 22 109 1.6 1.6 0.00 0.00 0.00 56 1010.0
20260504184626 22 189 4.8 6.4 0.00 0.00 0.00 54 1010.0
20260504184121 22 100 3.2 4.8 0.00 0.00 0.00 54 1010.0
20260504183618 22 92 4.8 9.7 0.00 0.00 0.00 54 1009.9
20260504183116 22 111 0.0 9.7 0.00 0.00 0.00 58 1009.9
20260504182614 21 124 0.0 3.2 0.00 0.00 0.00 58 1009.8
20260504182111 21 131 1.6 4.8 0.00 0.00 0.00 56 1009.8
20260504181608 21 182 0.0 3.2 0.00 0.00 0.00 55 1009.8
20260504181105 22 273 6.4 16.1 0.00 0.00 0.00 54 1009.8
20260504180604 21 302 1.6 6.4 0.00 0.00 0.00 57 1009.7
20260504180103 21 169 3.2 6.4 0.00 0.00 0.00 56 1009.5
20260504175600 21 131 1.6 9.7 0.00 0.00 0.00 57 1009.4
20260504175056 20 72 3.2 6.4 0.00 0.00 0.00 56 1009.7
20260504174555 20 203 1.6 9.7 0.00 0.00 0.00 57 1009.8
20260504174051 21 110 3.2 12.9 0.00 0.00 0.00 57 1009.8
20260504173548 21 109 1.6 4.8 0.00 0.00 0.00 57 1009.7
20260504173045 21 152 3.2 4.8 0.00 0.00 0.00 53 1009.8
20260504172541 20 100 0.0 4.8 0.00 0.00 0.00 57 1009.7
20260504172038 20 166 3.2 6.4 0.00 0.00 0.00 58 1009.9
20260504171535 19 120 1.6 6.4 0.00 0.00 0.00 59 1009.8
20260504171032 20 298 6.4 6.4 0.00 0.00 0.00 56 1009.7
20260504170527 20 303 8.0 12.9 0.00 0.00 0.00 54 1009.5
20260504150912 18 123 0.0 4.8 0.00 0.00 0.00 58 1010.4
20260504150408 18 117 1.6 3.2 0.00 0.00 0.00 59 1010.4
20260504140835 15 117 0.0 3.2 0.00 0.00 0.00 65 1010.3
20260504140330 15 106 3.2 9.7 0.00 0.00 0.00 65 1010.4
20260504130759 13 119 0.0 9.7 0.00 0.00 0.00 69 1011.1
20260504130255 13 143 1.6 4.8 0.00 0.00 0.00 67 1011.2
20260504120219 13 97 0.0 6.4 0.00 0.00 0.00 66 1011.2
20260504110647 12 111 1.6 4.8 0.00 0.00 0.00 64 1010.9
20260504110143 12 148 1.6 3.2 0.00 0.00 0.00 63 1010.8
20260504100609 10 143 0.0 1.6 0.00 0.00 0.00 67 1011.2
20260504100107 10 145 1.6 1.6 0.00 0.00 0.00 68 1011.1
20260504082003 11 157 1.6 9.7 0.00 0.00 0.00 62 1011.7
20260504081500 11 7 4.8 9.7 0.00 0.00 0.00 62 1011.8
20260504080954 11 154 3.2 6.4 0.00 0.00 0.00 60 1011.8
20260504080452 11 159 1.6 4.8 0.00 0.00 0.00 60 1011.6